﻿測定場所 (Monitoring sites),日付 (Measurement date),時間 (Measurement time),線量率 最大値 (max) μGy/h,線量率 最小値 (min) μGy/h,線量率 平均値 (average) μGy/h,
足立 (Adachi),2020-02-02,23:01～24:00,0.0316,0.0276,0.0296,
足立 (Adachi),2020-02-02,22:01～23:00,0.0313,0.0279,0.0293,
足立 (Adachi),2020-02-02,21:01～22:00,0.0310,0.0275,0.0293,
足立 (Adachi),2020-02-02,20:01～21:00,0.0317,0.0278,0.0295,
足立 (Adachi),2020-02-02,19:01～20:00,0.0317,0.0272,0.0294,
足立 (Adachi),2020-02-02,18:01～19:00,0.0318,0.0265,0.0293,
足立 (Adachi),2020-02-02,17:01～18:00,0.0312,0.0277,0.0292,
足立 (Adachi),2020-02-02,16:01～17:00,0.0315,0.0278,0.0294,
足立 (Adachi),2020-02-02,15:01～16:00,0.0316,0.0275,0.0293,
足立 (Adachi),2020-02-02,14:01～15:00,0.0324,0.0271,0.0296,
足立 (Adachi),2020-02-02,13:01～14:00,0.0310,0.0278,0.0295,
足立 (Adachi),2020-02-02,12:01～13:00,0.0311,0.0273,0.0295,
足立 (Adachi),2020-02-02,11:01～12:00,0.0313,0.0276,0.0295,
足立 (Adachi),2020-02-02,10:01～11:00,0.0309,0.0275,0.0293,
足立 (Adachi),2020-02-02,09:01～10:00,0.0312,0.0277,0.0296,
足立 (Adachi),2020-02-02,08:01～09:00,0.0318,0.0278,0.0295,
足立 (Adachi),2020-02-02,07:01～08:00,0.0314,0.0270,0.0294,
足立 (Adachi),2020-02-02,06:01～07:00,0.0311,0.0273,0.0293,
足立 (Adachi),2020-02-02,05:01～06:00,0.0316,0.0270,0.0291,
足立 (Adachi),2020-02-02,04:01～05:00,0.0313,0.0272,0.0294,
足立 (Adachi),2020-02-02,03:01～04:00,0.0305,0.0272,0.0290,
足立 (Adachi),2020-02-02,02:01～03:00,0.0314,0.0268,0.0295,
足立 (Adachi),2020-02-02,01:01～02:00,0.0304,0.0270,0.0288,
足立 (Adachi),2020-02-02,00:01～01:00,0.0308,0.0274,0.0290,
足立 (Adachi),2020-02-01,23:01～24:00,0.0312,0.0275,0.0292,
足立 (Adachi),2020-02-01,22:01～23:00,0.0317,0.0276,0.0292,
足立 (Adachi),2020-02-01,21:01～22:00,0.0319,0.0272,0.0290,
足立 (Adachi),2020-02-01,20:01～21:00,0.0310,0.0269,0.0289,
足立 (Adachi),2020-02-01,19:01～20:00,0.0303,0.0271,0.0289,
足立 (Adachi),2020-02-01,18:01～19:00,0.0312,0.0267,0.0291,
足立 (Adachi),2020-02-01,17:01～18:00,0.0306,0.0266,0.0289,
足立 (Adachi),2020-02-01,16:01～17:00,0.0310,0.0266,0.0289,
足立 (Adachi),2020-02-01,15:01～16:00,0.0308,0.0276,0.0289,
足立 (Adachi),2020-02-01,14:01～15:00,0.0306,0.0264,0.0290,
足立 (Adachi),2020-02-01,13:01～14:00,0.0307,0.0269,0.0288,
足立 (Adachi),2020-02-01,12:01～13:00,0.0306,0.0272,0.0291,
足立 (Adachi),2020-02-01,11:01～12:00,0.0312,0.0269,0.0291,
足立 (Adachi),2020-02-01,10:01～11:00,0.0306,0.0269,0.0291,
足立 (Adachi),2020-02-01,09:01～10:00,0.0313,0.0274,0.0289,
足立 (Adachi),2020-02-01,08:01～09:00,0.0309,0.0271,0.0291,
足立 (Adachi),2020-02-01,07:01～08:00,0.0305,0.0266,0.0287,
足立 (Adachi),2020-02-01,06:01～07:00,0.0309,0.0269,0.0288,
足立 (Adachi),2020-02-01,05:01～06:00,0.0308,0.0274,0.0289,
足立 (Adachi),2020-02-01,04:01～05:00,0.0307,0.0270,0.0287,
足立 (Adachi),2020-02-01,03:01～04:00,0.0305,0.0271,0.0286,
足立 (Adachi),2020-02-01,02:01～03:00,0.0303,0.0266,0.0283,
足立 (Adachi),2020-02-01,01:01～02:00,0.0307,0.0259,0.0283,
足立 (Adachi),2020-02-01,00:01～01:00,0.0307,0.0267,0.0284,
足立 (Adachi),2020-01-31,23:01～24:00,0.0300,0.0267,0.0282,
足立 (Adachi),2020-01-31,22:01～23:00,0.0313,0.0272,0.0287,
足立 (Adachi),2020-01-31,21:01～22:00,0.0312,0.0266,0.0285,
足立 (Adachi),2020-01-31,20:01～21:00,0.0308,0.0266,0.0287,
足立 (Adachi),2020-01-31,19:01～20:00,0.0310,0.0268,0.0293,
足立 (Adachi),2020-01-31,18:01～19:00,0.0307,0.0278,0.0293,
足立 (Adachi),2020-01-31,17:01～18:00,0.0325,0.0284,0.0299,
足立 (Adachi),2020-01-31,16:01～17:00,0.0318,0.0277,0.0297,
足立 (Adachi),2020-01-31,15:01～16:00,0.0317,0.0275,0.0296,
足立 (Adachi),2020-01-31,14:01～15:00,0.0313,0.0273,0.0291,
足立 (Adachi),2020-01-31,13:01～14:00,0.0304,0.0270,0.0291,
足立 (Adachi),2020-01-31,12:01～13:00,0.0310,0.0268,0.0290,
足立 (Adachi),2020-01-31,11:01～12:00,0.0309,0.0273,0.0292,
足立 (Adachi),2020-01-31,10:01～11:00,0.0313,0.0274,0.0293,
足立 (Adachi),2020-01-31,09:01～10:00,0.0311,0.0272,0.0291,
足立 (Adachi),2020-01-31,08:01～09:00,0.0314,0.0272,0.0288,
足立 (Adachi),2020-01-31,07:01～08:00,0.0303,0.0260,0.0280,
足立 (Adachi),2020-01-31,06:01～07:00,0.0303,0.0270,0.0287,
足立 (Adachi),2020-01-31,05:01～06:00,0.0315,0.0265,0.0291,
足立 (Adachi),2020-01-31,04:01～05:00,0.0312,0.0269,0.0293,
足立 (Adachi),2020-01-31,03:01～04:00,0.0317,0.0268,0.0290,
足立 (Adachi),2020-01-31,02:01～03:00,0.0303,0.0273,0.0288,
足立 (Adachi),2020-01-31,01:01～02:00,0.0304,0.0272,0.0286,
足立 (Adachi),2020-01-31,00:01～01:00,0.0305,0.0266,0.0285,
足立 (Adachi),2020-01-30,23:01～24:00,0.0297,0.0260,0.0281,
足立 (Adachi),2020-01-30,22:01～23:00,0.0306,0.0262,0.0285,
足立 (Adachi),2020-01-30,21:01～22:00,0.0299,0.0266,0.0284,
足立 (Adachi),2020-01-30,20:01～21:00,0.0305,0.0262,0.0283,
足立 (Adachi),2020-01-30,19:01～20:00,0.0300,0.0266,0.0283,
足立 (Adachi),2020-01-30,18:01～19:00,0.0304,0.0264,0.0284,
足立 (Adachi),2020-01-30,17:01～18:00,0.0305,0.0267,0.0284,
足立 (Adachi),2020-01-30,16:01～17:00,0.0304,0.0269,0.0287,
足立 (Adachi),2020-01-30,15:01～16:00,0.0308,0.0268,0.0287,
足立 (Adachi),2020-01-30,14:01～15:00,0.0305,0.0273,0.0290,
足立 (Adachi),2020-01-30,13:01～14:00,0.0314,0.0275,0.0293,
足立 (Adachi),2020-01-30,12:01～13:00,0.0307,0.0273,0.0291,
足立 (Adachi),2020-01-30,11:01～12:00,0.0309,0.0274,0.0289,
足立 (Adachi),2020-01-30,10:01～11:00,0.0309,0.0271,0.0289,
足立 (Adachi),2020-01-30,09:01～10:00,0.0308,0.0275,0.0291,
足立 (Adachi),2020-01-30,08:01～09:00,0.0314,0.0270,0.0291,
足立 (Adachi),2020-01-30,07:01～08:00,0.0314,0.0270,0.0291,
足立 (Adachi),2020-01-30,06:01～07:00,0.0308,0.0275,0.0288,
足立 (Adachi),2020-01-30,05:01～06:00,0.0306,0.0268,0.0287,
足立 (Adachi),2020-01-30,04:01～05:00,0.0302,0.0268,0.0286,
足立 (Adachi),2020-01-30,03:01～04:00,0.0305,0.0261,0.0288,
足立 (Adachi),2020-01-30,02:01～03:00,0.0302,0.0268,0.0283,
足立 (Adachi),2020-01-30,01:01～02:00,0.0305,0.0260,0.0285,
足立 (Adachi),2020-01-30,00:01～01:00,0.0303,0.0266,0.0283,
足立 (Adachi),2020-01-29,23:01～24:00,0.0305,0.0264,0.0285,
足立 (Adachi),2020-01-29,22:01～23:00,0.0303,0.0261,0.0284,
足立 (Adachi),2020-01-29,21:01～22:00,0.0305,0.0265,0.0285,
足立 (Adachi),2020-01-29,20:01～21:00,0.0300,0.0265,0.0284,
足立 (Adachi),2020-01-29,19:01～20:00,0.0301,0.0266,0.0283,
足立 (Adachi),2020-01-29,18:01～19:00,0.0303,0.0264,0.0285,
足立 (Adachi),2020-01-29,17:01～18:00,0.0298,0.0263,0.0280,
足立 (Adachi),2020-01-29,16:01～17:00,0.0300,0.0262,0.0281,
足立 (Adachi),2020-01-29,15:01～16:00,0.0304,0.0263,0.0281,
足立 (Adachi),2020-01-29,14:01～15:00,0.0299,0.0260,0.0282,
足立 (Adachi),2020-01-29,13:01～14:00,0.0304,0.0263,0.0282,
足立 (Adachi),2020-01-29,12:01～13:00,0.0303,0.0265,0.0285,
足立 (Adachi),2020-01-29,11:01～12:00,0.0295,0.0260,0.0281,
足立 (Adachi),2020-01-29,10:01～11:00,0.0305,0.0266,0.0284,
足立 (Adachi),2020-01-29,09:01～10:00,0.0300,0.0257,0.0281,
足立 (Adachi),2020-01-29,08:01～09:00,0.0307,0.0267,0.0284,
足立 (Adachi),2020-01-29,07:01～08:00,0.0301,0.0261,0.0286,
足立 (Adachi),2020-01-29,06:01～07:00,0.0329,0.0281,0.0302,
足立 (Adachi),2020-01-29,05:01～06:00,0.0345,0.0297,0.0317,
足立 (Adachi),2020-01-29,04:01～05:00,0.0440,0.0321,0.0381,
足立 (Adachi),2020-01-29,03:01～04:00,0.0470,0.0398,0.0430,
足立 (Adachi),2020-01-29,02:01～03:00,0.0483,0.0405,0.0441,
足立 (Adachi),2020-01-29,01:01～02:00,0.0470,0.0396,0.0435,
足立 (Adachi),2020-01-29,00:01～01:00,0.0476,0.0415,0.0446,
足立 (Adachi),2020-01-28,23:01～24:00,0.0497,0.0430,0.0464,
足立 (Adachi),2020-01-28,22:01～23:00,0.0512,0.0429,0.0469,
足立 (Adachi),2020-01-28,21:01～22:00,0.0496,0.0398,0.0444,
足立 (Adachi),2020-01-28,20:01～21:00,0.0467,0.0390,0.0424,
足立 (Adachi),2020-01-28,19:01～20:00,0.0448,0.0378,0.0418,
足立 (Adachi),2020-01-28,18:01～19:00,0.0466,0.0384,0.0431,
足立 (Adachi),2020-01-28,17:01～18:00,0.0482,0.0395,0.0430,
足立 (Adachi),2020-01-28,16:01～17:00,0.0479,0.0410,0.0440,
足立 (Adachi),2020-01-28,15:01～16:00,0.0450,0.0366,0.0416,
足立 (Adachi),2020-01-28,14:01～15:00,0.0452,0.0384,0.0412,
足立 (Adachi),2020-01-28,13:01～14:00,0.0437,0.0364,0.0392,
足立 (Adachi),2020-01-28,12:01～13:00,0.0426,0.0334,0.0362,
足立 (Adachi),2020-01-28,11:01～12:00,0.0402,0.0349,0.0371,
足立 (Adachi),2020-01-28,10:01～11:00,0.0421,0.0351,0.0380,
足立 (Adachi),2020-01-28,09:01～10:00,0.0398,0.0341,0.0367,
足立 (Adachi),2020-01-28,08:01～09:00,0.0419,0.0361,0.0385,
足立 (Adachi),2020-01-28,07:01～08:00,0.0423,0.0363,0.0382,
足立 (Adachi),2020-01-28,06:01～07:00,0.0438,0.0352,0.0390,
足立 (Adachi),2020-01-28,05:01～06:00,0.0414,0.0344,0.0377,
足立 (Adachi),2020-01-28,04:01～05:00,0.0417,0.0349,0.0382,
足立 (Adachi),2020-01-28,03:01～04:00,0.0448,0.0367,0.0405,
足立 (Adachi),2020-01-28,02:01～03:00,0.0420,0.0319,0.0360,
足立 (Adachi),2020-01-28,01:01～02:00,0.0420,0.0337,0.0371,
足立 (Adachi),2020-01-28,00:01～01:00,0.0438,0.0366,0.0395,
足立 (Adachi),2020-01-27,23:01～24:00,0.0384,0.0333,0.0355,
足立 (Adachi),2020-01-27,22:01～23:00,0.0371,0.0332,0.0352,
足立 (Adachi),2020-01-27,21:01～22:00,0.0372,0.0336,0.0354,
足立 (Adachi),2020-01-27,20:01～21:00,0.0365,0.0278,0.0320,
足立 (Adachi),2020-01-27,19:01～20:00,0.0305,0.0273,0.0287,
足立 (Adachi),2020-01-27,18:01～19:00,0.0310,0.0271,0.0289,
足立 (Adachi),2020-01-27,17:01～18:00,0.0309,0.0271,0.0292,
足立 (Adachi),2020-01-27,16:01～17:00,0.0309,0.0273,0.0290,
足立 (Adachi),2020-01-27,15:01～16:00,0.0305,0.0269,0.0291,
足立 (Adachi),2020-01-27,14:01～15:00,0.0322,0.0274,0.0293,
足立 (Adachi),2020-01-27,13:01～14:00,0.0309,0.0274,0.0292,
足立 (Adachi),2020-01-27,12:01～13:00,0.0315,0.0275,0.0292,
足立 (Adachi),2020-01-27,11:01～12:00,0.0311,0.0275,0.0292,
足立 (Adachi),2020-01-27,10:01～11:00,0.0317,0.0281,0.0298,
足立 (Adachi),2020-01-27,09:01～10:00,0.0327,0.0287,0.0302,
足立 (Adachi),2020-01-27,08:01～09:00,0.0325,0.0277,0.0300,
足立 (Adachi),2020-01-27,07:01～08:00,0.0315,0.0285,0.0300,
足立 (Adachi),2020-01-27,06:01～07:00,0.0317,0.0283,0.0300,
足立 (Adachi),2020-01-27,05:01～06:00,0.0318,0.0282,0.0297,
足立 (Adachi),2020-01-27,04:01～05:00,0.0323,0.0277,0.0296,
足立 (Adachi),2020-01-27,03:01～04:00,0.0313,0.0279,0.0294,
足立 (Adachi),2020-01-27,02:01～03:00,0.0313,0.0272,0.0293,
足立 (Adachi),2020-01-27,01:01～02:00,0.0312,0.0270,0.0291,
足立 (Adachi),2020-01-27,00:01～01:00,0.0310,0.0266,0.0287,
